Location: Navalmoral
(40.4603°N, 4.7686°W)
Time: 09:30:48
(UTC+00:00)

Cosmos 2344 - Pass Details

Date: 05 August 2024
Orbit: 1207 x 3035 km, 63.3° (Epoch: 14 September)

Event Time Altitude Azimuth Distance (km) Brightness Sun altitude
Exits shadow 23:15:52 25° 236° (SW) 2,351 4.8 -30.7°
Maximum altitude 23:20:31 61° 309° (NW) 1,364 3.8 -31.0°
Drops below altitude 10° 23:27:44 10° 30° (NNE) 3,198 6.2 -31.4°
Sets 23:30:36 0° 34° (NE) 4,242 6.9 -31.5°
